Regional Weather Roundup
Issued by NWS

Home | Current Version | Previous Version | Graphics & Text | Print | Product List | Glossary On
Versions: 1 2 3 4 5 6 7 8 9 10 11 12 13 14 15 16 17 18 19 20 21 22 23 24 25 26 27 28 29 30 31 32 33 34 35 36 37 38 39 40 41 42 43 44 45 46 47 48 49 50
000
ASUS43 KFSD 262210
RWRSD

WEATHER ROUNDUP FOR SOUTH DAKOTA
NATIONAL WEATHER SERVICE SIOUX FALLS SD
400 PM CST WED NOV 26 2014

NOTE: "FAIR" INDICATES FEW OR NO CLOUDS BELOW 12,000 FEET WITH NO
SIGNIFICANT WEATHER AND/OR OBSTRUCTIONS TO VISIBILITY.


SDZ001>005-009-010-012>017-262300-
NORTHWEST AND NORTH CENTRAL SOUTH DAKOTA

CITY           SKY/WX    TMP DP  RH WIND       PRES   REMARKS
BUFFALO          N/A     24  19  81 NE13      30.19R WCI  12
FAITH            N/A     24  20  84 NE16      30.26R WCI  11
MOBRIDGE       CLOUDY    14   7  73 CALM      30.36R
$$

SDZ012>016-024>037-041>051-057-063-072>074-262300-
SOUTHWEST AND SOUTH CENTRAL SOUTH DAKOTA

CITY           SKY/WX    TMP DP  RH WIND       PRES   REMARKS
RAPID CTY ARPT CLOUDY    31  23  72 S3        30.24R
PIERRE         CLOUDY    20  12  71 NE7       30.35R WCI  11
CUSTER         CLOUDY    26  19  74 W12       30.13R WCI  16
ELLSWORTH AFB  CLOUDY    32  25  74 CALM      30.23
PHILIP         CLOUDY    30  20  66 W8        30.29S WCI  22
PINE RIDGE     CLOUDY    31  22  69 CALM      30.24S
SPEARFISH      CLOUDY    28  25  86 N5        30.22R WCI  23
WINNER         FAIR      25  15  66 N6        30.33R WCI  18
$$

SDZ004>011-016>023-039-040-262300-
NORTHEAST SOUTH DAKOTA

CITY           SKY/WX    TMP DP  RH WIND       PRES   REMARKS
ABERDEEN       CLOUDY     9   0  67 N14       30.43R WCI  -7
WATERTOWN      CLOUDY     9   0  67 N14       30.33R WCI  -7
SISSETON         N/A      6  -3  66 N15       30.41R WCI -12
$$

SDZ017-020-022-023-036>040-048>070-262300-
SOUTHEAST SOUTH DAKOTA

CITY           SKY/WX    TMP DP  RH WIND       PRES   REMARKS
SIOUX FALLS    PTCLDY    18  10  71 N12       30.33R WCI   5
HURON          CLOUDY    11   2  67 N15       30.41R WCI  -5
CHAMBERLAIN    CLOUDY    21  10  63 N7        30.37R WCI  12
MITCHELL       MOCLDY    15   7  70 NW12      30.40R WCI   2
YANKTON        CLEAR     18  10  73 NW15      30.36R WCI   3
$$

ABBREVIATIONS USED IN REMARKS
   TC - TEMPERATURE IN CELSIUS
  WCI - WIND CHILL INDEX
   HX - HEAT INDEX
  VSB - VISIBILITY




USA.gov is the U.S. government's official web portal to all federal, state and local government web resources and services.